Weather History for LIVP - October, 2013

Change the Weather History Date:

Wednesday, October 9, 2013

  Actual Average Record
Temperature  
Mean Temperature 40 °F -  
Max Temperature 42 °F 40 °F 51 °F (2006)
Min Temperature 38 °F 32 °F 23 °F (2011)
Degree Days  
Heating Degree Days 25    
Moisture  
Dew Point 40 °F    
Average Humidity 98    
Maximum Humidity 100    
Minimum Humidity 90    
Precipitation  
Precipitation 0.02 in 0.09 in - ()
Sea Level Pressure  
Sea Level Pressure 30.13 in    
Wind  
Wind Speed 5 mph ()    
Max Wind Speed 9 mph    
Max Gust Speed -    
Visibility 0.0 miles    
Events Fog , Rain    
Averages and records for this station are not official NWS values.
T = Trace of Precipitation, MM = Missing Value Source: Averaged Metar Reports

Daily Weather History Graph

Daily Weather History Graph

Search for Another Location

Airport or City:

Trip Planner

Search our weather history database for the weather conditions in past years. The results will help you decide how hot, cold, wet, or windy it might be!

Date:

Astronomy

Oct. 09, 2013 Rise Set
Actual Time 7:24 AM CEST 6:40 PM CEST
Civil Twilight 6:54 AM CEST 7:10 PM CEST
Nautical Twilight 6:20 AM CEST 7:45 PM CEST
Astronomical Twilight 5:45 AM CEST 8:20 PM CEST
Moon 12:16 PM CEST (10/9) 9:45 PM CEST (10/9)
Length of Visible Light 12h 15m
Length of Day
11h 15m
Waxing Crescent, 22% of the Moon is Illuminated
Oct 9
Waxing Crescent
Oct 12
First Quarter
Oct 19
Full
Oct 27
Last Quarter
Nov 3
New

Hourly Weather History & Observations

Time (CEST) Temp. Windchill Dew Point Humidity Pressure Visibility Wind Dir Wind Speed Gust Speed Precip Events Conditions
1:55 AM 41.0 °F 36.4 °F 39.2 °F 93% 30.24 in 0.1 mi North 6.9 mph - N/A Fog , Rain Light Rain
2:00 AM 40 °F - 40 °F 100%  in 0 mi North 6.9 mph - - Rain Light Rain
2:55 AM 39.2 °F 33.6 °F 39.2 °F 100% 30.21 in 0.0 mi North 8.1 mph - N/A Fog , Rain Light Rain
3:55 AM 41.0 °F 38.0 °F 41.0 °F 100% 30.21 in 0.0 mi North 4.6 mph - N/A Fog , Rain Rain
4:55 AM 39.2 °F - 39.2 °F 100% 30.18 in 0.0 mi North 2.3 mph - N/A Fog , Rain Rain
5:00 AM 40 °F - 40 °F 100%  in 0 mi North 2.3 mph - - Rain Light Rain
5:55 AM 39.2 °F 37.0 °F 39.2 °F 100% 30.18 in 0.0 mi North 3.5 mph - N/A Fog Fog
6:55 AM 39.2 °F - 39.2 °F 100% 30.18 in 0.0 mi North 2.3 mph - N/A Fog Fog
7:55 AM 39.2 °F - 39.2 °F 100% 30.18 in 0.0 mi North 2.3 mph - N/A Fog Fog
8:00 AM 39 °F - 39 °F 100%  in 0 mi North 2.3 mph - - Fog Heavy Fog
8:55 AM 39.2 °F - 39.2 °F 100% 30.18 in 0.2 mi Calm Calm - N/A Fog Fog
9:55 AM 41.0 °F - 41.0 °F 100% 30.18 in 0.1 mi Calm Calm - N/A Fog Fog
10:55 AM 41.0 °F - 41.0 °F 100% 30.18 in 0.1 mi Calm Calm - N/A Fog Fog
11:00 AM 41 °F - 41 °F 99%  in 0 mi Calm Calm - - Fog Heavy Fog
11:55 AM 41.0 °F - 41.0 °F 100% 30.18 in 0.1 mi North 2.3 mph - N/A Fog Fog
12:55 PM 41.0 °F 39.0 °F 41.0 °F 100% 30.15 in 0.1 mi SSW 3.5 mph - N/A Fog Fog
1:55 PM 41.0 °F 36.4 °F 41.0 °F 100% 30.15 in 0.1 mi SSW 6.9 mph - N/A Fog Fog
2:00 PM 42 °F - 41 °F 95%  in 0 mi SSW 6.9 mph - - Fog Heavy Fog
2:55 PM 41.0 °F 36.4 °F 41.0 °F 100% 30.12 in 0.1 mi SSW 6.9 mph - N/A Fog Fog
3:55 PM 41.0 °F 35.2 °F 39.2 °F 93% 30.09 in 0.1 mi SW 9.2 mph - N/A Fog Fog
4:55 PM 41.0 °F 35.2 °F 39.2 °F 93% 30.09 in 0.1 mi SW 9.2 mph - N/A Fog Fog
5:00 PM 41 °F - 39 °F 90%  in 0 mi SW 9.2 mph - - Fog Heavy Fog
5:55 PM 39.2 °F 33.0 °F 39.2 °F 100% 30.06 in - SW 9.2 mph - N/A Fog Fog
6:55 PM 39.2 °F 33.0 °F 39.2 °F 100% 30.06 in 0.0 mi WSW 9.2 mph - N/A Fog , Rain Light Rain
7:55 PM 39.2 °F 33.0 °F 37.4 °F 93% 30.06 in 0.0 mi SSW 9.2 mph - N/A Fog , Rain Light Rain
8:00 PM 38 °F - 38 °F 99%  in 0 mi SSW 9.2 mph - - Rain Light Rain
8:55 PM 39.2 °F 35.0 °F 39.2 °F 100% 30.06 in 0.0 mi SSW 5.8 mph - N/A Fog , Rain Light Rain
9:55 PM 39.2 °F 34.2 °F 39.2 °F 100% 30.06 in 0.0 mi SW 6.9 mph - N/A Fog , Rain Light Rain
10:55 PM 39.2 °F 34.2 °F 39.2 °F 100% 30.06 in 0.0 mi SW 6.9 mph - N/A Fog , Rain Light Rain
11:00 PM 39 °F - 39 °F 98%  in 0 mi SW 6.9 mph - - Rain Light Rain
11:55 PM 39.2 °F 35.0 °F 37.4 °F 93% 30.04 in 0.0 mi SW 5.8 mph - N/A Fog Fog